Location: Katowice
(50.2611°N, 19.0242°E)
Time: 10:42:11
(UTC+02:00)

Explorer 7 - Pass Details

Date: 27 August 2019
Orbit: 485 x 680 km, 50.3° (Epoch: 22 September)

Event Time Altitude Azimuth Distance (km) Brightness Sun altitude
Rises 11:53:07 0° 275° (W) 2,988 10.4 48.4°
Reaches altitude 10° 11:55:31 10° 275° (W) 2,053 9.7 48.5°
Maximum altitude 12:00:16 89° 196° (SSW) 630 8.1 48.8°
Drops below altitude 10° 12:04:44 10° 98° (E) 1,935 10.0 49.0°
Sets 12:06:57 0° 98° (E) 2,802 10.6 49.0°
